[[{"header":{"parameterUnit":"m.s-1","parameterCategory":1,"la1":30.2991,"la2":30.254,"lo1":-89.0895,"lo2":-89.0444,"dy":0.0017,"dx":0.0017,"nx":28,"ny":28,"refTime":"2024-05-21T21:00:00:Z","depth":0,"parameterNumber":2,"parameterNumberName":"U-component_of_WINDS"},"data":[0,0,0,0,0,0,0,0,0,0,0,0,0,0,0,0,0,0,0,0,0,0,0,0,0,0,0,0,0,0,0,0,0,0,0,0,0,0,0,0,0,0,0,0,0,0,0,0,0,0,0,0,0,0,0,0,0,0,-2.3264,-2.3264,0,-2.3286,-2.3287,-2.3287,-2.3251,-2.325,-2.3249,-2.3248,-2.3271,-2.3273,-2.3275,0,0,0,0,0,0,0,0,0,0,0,0,0,-2.319,-2.3191,-2.3264,-2.3264,-2.3264,-2.3286,-2.3287,-2.3287,-2.3252,-2.325,-2.3249,-2.3247,-2.3271,-2.3273,-2.3275,0,0,0,0,0,0,0,0,0,0,0,0,0,-2.3218,-2.3192,-2.3263,-2.3249,-2.3248,-2.3286,-2.3287,-2.3287,-2.3252,-2.325,-2.3248,-2.3246,-2.327,-2.3272,-2.3275,-2.3328,0,0,-2.3283,-2.3284,0,0,0,0,0,0,0,0,-2.3216,-2.3221,-2.3251,-2.325,-2.3249,-2.3264,-2.3269,-2.3301,-2.3252,-2.325,-2.3248,-2.3246,-2.327,-2.3273,-2.3281,-2.3329,-2.333,-2.3283,-2.3285,-2.3286,-2.3287,0,0,0,0,0,0,0,-2.3215,-2.322,-2.3272,-2.3251,-2.325,-2.3242,-2.3244,-2.3275,-2.327,-2.325,-2.3248,-2.3251,-2.3269,-2.3279,-2.3281,-2.3331,-2.3283,-2.3286,-2.3287,-2.3288,-2.3423,-2.3425,0,0,0,0,0,0,-2.3214,-2.3218,-2.3272,-2.3273,-2.3228,-2.3244,-2.3247,-2.3261,-2.327,-2.327,-2.3253,-2.3249,-2.3275,-2.3278,-2.3282,-2.3344,-2.3286,-2.3289,-2.329,-2.3421,-2.3424,-2.3426,0,0,0,0,0,0,-2.3213,-2.3219,-2.3271,-2.3245,-2.3251,-2.3248,-2.3264,-2.3263,-2.3272,-2.3272,-2.3271,-2.3263,-2.3274,-2.3278,-2.3317,-2.3345,-2.329,-2.3292,-2.3419,-2.3422,-2.3425,-2.347,0,0,0,0,0,0,-2.3211,-2.3219,-2.3239,-2.3246,-2.3252,-2.3305,-2.3266,-2.3264,-2.3276,-2.3272,-2.3281,-2.3281,-2.3273,-2.3313,-2.332,-2.3347,-2.3294,-2.3416,-2.342,-2.3424,-2.3466,-2.3474,-2.3481,0,0,0,0,0,-2.3208,-2.3251,-2.324,-2.3247,-2.3278,-2.3307,-2.3311,-2.3301,-2.3279,-2.3299,-2.3299,-2.328,-2.3341,-2.3317,-2.3324,-2.3353,-2.3415,-2.3419,-2.3424,-2.3463,-2.3473,-2.3481,0,0,0,0,0,0,-2.3248,-2.3252,-2.324,-2.3286,-2.3297,-2.3301,-2.3326,-2.3312,-2.3329,-2.3324,-2.3311,-2.3313,-2.3355,-2.3358,-2.3332,-2.3405,-2.3374,-2.338,-2.3401,-2.3411,-2.3418,-2.3416,-2.3296,0,0,0,0,0,-2.3262,-2.3286,-2.3288,-2.3329,-2.3334,-2.333,-2.3342,-2.3333,-2.3344,-2.3348,-2.3351,-2.3361,-2.3383,-2.3397,-2.3417,-2.3467,-2.3468,-2.349,-2.3498,-2.3504,-2.3509,-2.3535,-2.3545,-2.3441,-2.3441,-2.3441,0,0,-2.3292,-2.3297,-2.3313,-2.3337,-2.3344,-2.3369,-2.3334,-2.3361,-2.3379,-2.3352,-2.3389,-2.3391,-2.3402,-2.3447,-2.3466,-2.3451,-2.3538,-2.351,-2.3515,-2.3516,-2.3541,-2.3551,-2.356,-2.3444,-2.3443,-2.3443,0,0,-2.3358,-2.3365,-2.3399,-2.3407,-2.3418,-2.3414,-2.3422,-2.3429,-2.343,-2.3466,-2.3446,-2.3468,-2.3505,-2.3513,-2.3523,-2.3592,-2.3576,-2.3599,-2.3639,-2.3664,-2.3673,-2.368,-2.3704,-2.3713,-2.3605,-2.3605,-2.3605,0,-2.3394,-2.343,-2.3418,-2.3447,-2.3458,-2.3435,-2.3469,-2.3478,-2.3495,-2.3503,-2.3485,-2.3531,-2.3537,-2.3583,-2.36,-2.3608,-2.3617,-2.3598,-2.3672,-2.3679,-2.3686,-2.3709,-2.3718,-2.3607,-2.3607,-2.3607,-2.3607,0,-2.3473,-2.3498,-2.3525,-2.3541,-2.3555,-2.3587,-2.358,-2.3596,-2.3586,-2.3585,-2.3622,-2.3628,-2.3649,-2.3659,-2.365,-2.3704,-2.3693,-2.3674,-2.3643,-2.3699,-2.372,-2.3729,-2.3611,-2.361,-2.361,-2.3609,0,0,-2.3564,-2.3574,-2.3584,-2.3591,-2.3602,-2.3621,-2.3652,-2.3672,-2.3685,-2.3698,-2.3723,-2.3755,-2.3738,-2.3748,-2.374,-2.3762,-2.3817,-2.374,-2.374,-2.3754,-2.3876,-2.389,-2.39,-2.3806,-2.3808,-2.3809,-2.3875,0,-2.363,-2.3683,-2.3673,-2.3724,-2.3748,-2.3726,-2.3752,-2.3761,-2.3761,-2.3781,-2.378,-2.3803,-2.3778,-2.3784,-2.3805,-2.3806,-2.3841,-2.3801,-2.3829,-2.383,-2.3826,-2.3911,-2.3926,-2.3988,-2.3883,-2.3884,-2.3885,0,-2.3714,-2.3729,-2.3783,-2.3789,-2.3798,-2.3822,-2.384,-2.3859,-2.3869,-2.3867,-2.3879,-2.3866,-2.3896,-2.3865,-2.3906,-2.3879,-2.389,-2.3892,-2.3894,-2.3896,-2.3861,-2.3915,-2.4007,-2.4017,-2.3899,-2.3898,-2.3897,0,-2.3775,-2.3809,-2.3845,-2.3852,-2.3861,-2.3878,-2.3882,-2.3891,-2.3903,-2.3918,-2.3926,-2.3945,-2.3955,-2.397,-2.3962,-2.394,-2.4005,-2.3973,-2.4004,-2.4004,-2.4018,-2.4017,-2.4113,-2.4027,-2.4026,-2.4026,-2.4026,0,-2.3849,-2.3882,-2.3873,-2.3895,-2.3932,-2.392,-2.3957,-2.3959,-2.3967,-2.3989,-2.3971,-2.3992,-2.3981,-2.4002,-2.3997,-2.4031,-2.4036,-2.4035,-2.4033,-2.4037,-2.4037,-2.4043,-2.4039,-2.4029,-2.4028,-2.4028,-2.4027,0,-2.3923,-2.3918,-2.3956,-2.3961,-2.3963,-2.399,-2.3994,-2.4015,-2.4013,-2.4041,-2.4047,-2.4044,-2.4067,-2.4061,-2.4087,-2.4083,-2.4127,-2.412,-2.4124,-2.4122,-2.4153,-2.415,-2.4256,-2.4269,-2.4174,-2.4175,-2.4176,0,-2.397,-2.3996,-2.4003,-2.4016,-2.4022,-2.4044,-2.4057,-2.4047,-2.406,-2.4074,-2.4093,-2.4114,-2.4131,-2.4169,-2.4169,-2.4188,-2.4181,-2.4217,-2.4184,-2.4186,-2.4181,-2.418,-2.4182,-2.4224,-2.4225,-2.4226,-2.4226,0,-2.4055,-2.4051,-2.407,-2.4087,-2.4103,-2.4116,-2.4128,-2.414,-2.4131,-2.4148,-2.4171,-2.4184,-2.4209,-2.4231,-2.4249,-2.4253,-2.4238,-2.4237,-2.4245,-2.4248,-2.4249,-2.4249,-2.4141,-2.4234,-2.4233,-2.4233,-2.4232,-2.4232,-2.4117,-2.4138,-2.4147,-2.4168,-2.4176,-2.4187,-2.4207,-2.4207,-2.4226,-2.4246,-2.4239,-2.4266,-2.4275,-2.4297,-2.4304,-2.4324,-2.4311,-2.4323,-2.4326,-2.4329,-2.4332,-2.4246,-2.4328,-2.4327,-2.4327,-2.4327,-2.4327,0,-2.42,-2.4205,-2.4224,-2.4241,-2.4258,-2.4242,-2.4255,-2.427,-2.4293,-2.4303,-2.4319,-2.4346,-2.4367,-2.4369,-2.4388,-2.4404,-2.4398,-2.441,-2.4408,-2.4409,-2.4343,-2.4334,-2.4414,-2.4414,-2.4414,-2.4414,-2.4414,-2.4414,-2.4246,-2.428,-2.4278,-2.4316,-2.432,-2.4346,-2.4354,-2.4364,-2.4372,-2.4403,-2.442,-2.442,-2.4427,-2.4447,-2.4465,-2.4465,-2.4473,-2.4487,-2.4484,-2.4423,-2.4414,-2.4406,-2.4397,-2.4489,-2.4489,-2.4548,-2.4549,-2.4549]},{"header":{"parameterUnit":"m.s-1","parameterCategory":1,"la1":30.2991,"la2":30.254,"lo1":-89.0895,"lo2":-89.0444,"dy":0.0017,"dx":0.0017,"nx":28,"ny":28,"refTime":"2024-05-21T21:00:00:Z","depth":0,"parameterNumber":3,"parameterNumberName":"V-component_of_WINDS"},"data":[0,0,0,0,0,0,0,0,0,0,0,0,0,0,0,0,0,0,0,0,0,0,0,0,0,0,0,0,0,0,0,0,0,0,0,0,0,0,0,0,0,0,0,0,0,0,0,0,0,0,0,0,0,0,0,0,0,0,4.2804,4.2805,0,4.2859,4.286,4.286,4.2814,4.2812,4.281,4.2809,4.2861,4.2864,4.2868,0,0,0,0,0,0,0,0,0,0,0,0,0,4.2655,4.2658,4.2804,4.2805,4.2805,4.2859,4.286,4.286,4.2815,4.2812,4.281,4.2808,4.286,4.2864,4.2868,0,0,0,0,0,0,0,0,0,0,0,0,0,4.2716,4.2659,4.2804,4.2789,4.2788,4.2859,4.286,4.2861,4.2815,4.2812,4.2809,4.2807,4.2859,4.2864,4.2868,4.2955,0,0,4.2883,4.2885,0,0,0,0,0,0,0,0,4.2712,4.2721,4.2791,4.279,4.2789,4.2827,4.2826,4.2892,4.2816,4.2805,4.2809,4.2805,4.2852,4.2857,4.2874,4.2958,4.296,4.2883,4.2886,4.2888,4.289,0,0,0,0,0,0,0,4.2708,4.2719,4.2826,4.2792,4.2791,4.2778,4.2784,4.2839,4.2844,4.2805,4.2802,4.281,4.2851,4.2869,4.2874,4.2961,4.2883,4.2887,4.289,4.2892,4.3117,4.3119,0,0,0,0,0,0,4.2706,4.2715,4.2824,4.2827,4.2743,4.2783,4.2789,4.2818,4.2843,4.2844,4.2812,4.2807,4.2862,4.2869,4.2876,4.2978,4.2888,4.2893,4.2896,4.3113,4.3117,4.3121,0,0,0,0,0,0,4.2703,4.2716,4.2822,4.277,4.2783,4.2789,4.2821,4.282,4.2838,4.2848,4.2848,4.283,4.286,4.2869,4.2936,4.2979,4.2895,4.2899,4.311,4.3115,4.3119,4.3183,0,0,0,0,0,0,4.2699,4.2715,4.275,4.2772,4.2786,4.2882,4.2824,4.2823,4.2847,4.2841,4.2865,4.2866,4.2859,4.2929,4.294,4.2984,4.2903,4.3106,4.3112,4.3117,4.3177,4.3189,4.32,0,0,0,0,0,4.2694,4.2765,4.2752,4.2765,4.2829,4.2884,4.2892,4.2884,4.2851,4.2884,4.289,4.2865,4.2973,4.2936,4.2949,4.2995,4.3103,4.311,4.3117,4.3172,4.3187,4.32,0,0,0,0,0,0,4.2747,4.2768,4.2753,4.2834,4.2858,4.2877,4.2919,4.29,4.2933,4.2926,4.2913,4.2919,4.2989,4.2998,4.2957,4.3079,4.3032,4.3042,4.307,4.3084,4.3095,4.3091,4.2907,0,0,0,0,0,4.2768,4.2813,4.2828,4.2898,4.2911,4.2913,4.2937,4.2928,4.2952,4.2962,4.2972,4.2995,4.3034,4.306,4.3096,4.3179,4.3182,4.3216,4.3228,4.3237,4.3245,4.3288,4.3302,4.3143,4.3143,4.3143,0,0,4.2813,4.2829,4.2858,4.2909,4.2927,4.2972,4.2922,4.2972,4.3004,4.2969,4.3032,4.3041,4.3065,4.3139,4.3173,4.315,4.329,4.3246,4.3253,4.3256,4.3296,4.3311,4.3325,4.3148,4.3147,4.3146,0,0,4.2916,4.2934,4.2993,4.3012,4.3039,4.304,4.3054,4.3076,4.308,4.3144,4.3118,4.3156,4.3223,4.3241,4.3259,4.3369,4.3346,4.3381,4.344,4.3481,4.3494,4.3505,4.3542,4.3555,4.3389,4.3389,4.3389,0,4.2967,4.3035,4.3026,4.3078,4.31,4.3071,4.313,4.3148,4.3185,4.3201,4.3175,4.3258,4.3273,4.335,4.3376,4.3393,4.3407,4.3377,4.3493,4.3504,4.3514,4.3549,4.3563,4.3393,4.3393,4.3392,4.3392,0,4.3095,4.3143,4.3187,4.3225,4.3252,4.3307,4.3305,4.3333,4.3322,4.3325,4.3389,4.3406,4.3444,4.3462,4.3452,4.3537,4.3522,4.3495,4.3448,4.3533,4.3566,4.3579,4.3399,4.3397,4.3396,4.3395,0,0,4.3234,4.3265,4.3281,4.3297,4.3325,4.3361,4.3414,4.3452,4.3476,4.3503,4.3545,4.3603,4.3578,4.3598,4.3589,4.3626,4.3709,4.3594,4.3594,4.3613,4.3802,4.3822,4.3838,4.3695,4.3697,4.3699,4.38,0,4.3337,4.343,4.3423,4.351,4.3552,4.3525,4.3571,4.3592,4.3596,4.3631,4.3635,4.3675,4.364,4.3652,4.3687,4.3692,4.3747,4.3684,4.3732,4.3734,4.3726,4.3855,4.3876,4.397,4.3813,4.3815,4.3816,0,4.3469,4.3501,4.3593,4.3613,4.363,4.3672,4.3705,4.374,4.3763,4.3763,4.3786,4.377,4.3822,4.3775,4.3844,4.3802,4.3821,4.3826,4.383,4.3833,4.378,4.386,4.4,4.4014,4.3837,4.3835,4.3834,0,4.3559,4.3625,4.3687,4.3702,4.3728,4.3757,4.3769,4.3788,4.3812,4.3841,4.3855,4.389,4.3909,4.3935,4.3929,4.3895,4.3999,4.3952,4.3999,4.3999,4.4021,4.402,4.4165,4.4036,4.4036,4.4036,4.4036,0,4.3674,4.3731,4.3728,4.3766,4.3828,4.3819,4.388,4.3888,4.3906,4.3944,4.3923,4.3959,4.3949,4.3984,4.398,4.4037,4.4046,4.4046,4.4044,4.4048,4.4047,4.4059,4.4052,4.404,4.4039,4.4038,4.4037,0,4.3784,4.3785,4.3851,4.387,4.3876,4.392,4.3935,4.3971,4.3973,4.4021,4.4032,4.4035,4.4075,4.4072,4.4117,4.4114,4.4185,4.4175,4.4177,4.4175,4.4222,4.4217,4.4378,4.4398,4.4258,4.4259,4.4261,0,4.3857,4.39,4.3923,4.3948,4.3961,4.4001,4.4025,4.4017,4.4042,4.407,4.4102,4.414,4.417,4.4236,4.4241,4.4275,4.4265,4.432,4.427,4.4272,4.4264,4.4261,4.4265,4.4329,4.4331,4.4332,4.4333,0,4.3986,4.3984,4.4019,4.4054,4.4083,4.411,4.4134,4.4155,4.415,4.4179,4.422,4.4243,4.429,4.4327,4.436,4.437,4.435,4.4349,4.4361,4.4364,4.4363,4.4363,4.4202,4.4345,4.4343,4.4343,4.4342,4.4342,4.4078,4.4115,4.4136,4.4176,4.4193,4.4217,4.425,4.4257,4.4291,4.4329,4.4322,4.4368,4.4387,4.4429,4.4442,4.4477,4.4457,4.4476,4.448,4.4484,4.4489,4.4359,4.4483,4.4483,4.4482,4.4482,4.4482,0,4.4204,4.4217,4.4253,4.4289,4.4319,4.4299,4.4325,4.4351,4.4392,4.4413,4.4443,4.449,4.4526,4.4534,4.4568,4.4595,4.4586,4.4604,4.4601,4.4603,4.4506,4.4491,4.461,4.461,4.461,4.461,4.461,4.461,4.4274,4.4334,4.4334,4.4401,4.4413,4.4459,4.4475,4.4495,4.4512,4.4565,4.4595,4.46,4.4615,4.465,4.4682,4.4684,4.4696,4.4717,4.4715,4.4623,4.461,4.4598,4.4584,4.4721,4.4721,4.4809,4.481,4.4811]}]]